EW3957 Weather Reports


Display with metric or nautical units.
time (UTC)temp
F
wind
direction
speed
MPH
gust
MPH
rain 1hr
in
rain 24hr
in
rain mn
in
humidity
%
barometer
mb
20260505041605 55 292 0.0 0.0 0.00 0.00 0.00 65 1007.7
20260505040037 56 292 0.0 0.0 0.00 0.00 0.00 64 1007.5
20260505034545 57 292 0.0 0.0 0.00 0.00 0.00 62 1007.3
20260505033013 59 291 0.0 0.0 0.00 0.00 0.00 61 1007.1
20260505031544 61 291 0.0 0.0 0.00 0.00 0.00 56 1006.9
20260505030113 63 291 0.0 0.0 0.00 0.00 0.00 52 1006.9
20260505024524 65 292 0.0 0.0 0.00 0.00 0.00 47 1006.7
20260505023052 67 290 0.0 0.0 0.00 0.00 0.00 44 1006.6
20260505021519 69 355 0.0 4.0 0.00 0.00 0.00 42 1006.5
20260505020047 73 71 0.0 1.0 0.00 0.00 0.00 40 1006.4
20260505014501 74 57 0.0 5.0 0.00 0.00 0.00 38 1006.5
20260505013031 75 309 0.0 0.0 0.00 0.00 0.00 39 1006.5
20260505011608 76 333 0.0 4.0 0.00 0.00 0.00 34 1006.5
20260505010027 76 36 0.0 1.0 0.00 0.00 0.00 37 1006.6
20260505004544 76 336 0.0 1.0 0.00 0.00 0.00 37 1006.6
20260505003009 77 13 0.0 3.0 0.00 0.00 0.00 35 1006.6
20260505001538 78 192 0.0 3.0 0.00 0.00 0.00 34 1006.6
20260505000117 78 51 0.0 3.0 0.00 0.00 0.00 33 1006.6
20260504234523 78 144 0.0 1.0 0.00 0.00 0.00 34 1006.7
20260504233106 77 327 0.0 4.0 0.00 0.00 0.00 37 1006.8
20260504231516 78 57 0.0 3.0 0.00 0.00 0.00 32 1006.8
20260504230046 78 340 0.0 4.0 0.00 0.00 0.00 31 1006.9
20260504224614 78 5 0.0 0.0 0.00 0.00 0.00 33 1006.9
20260504223035 77 100 0.0 5.0 0.00 0.00 0.00 34 1007.0
20260504221555 77 44 0.0 5.0 0.00 0.00 0.00 36 1007.1
20260504220015 77 348 2.0 10.0 0.00 0.00 0.00 36 1007.2
20260504214537 77 190 1.0 5.0 0.00 0.00 0.00 37 1007.3
20260504213017 77 207 0.0 5.0 0.00 0.00 0.00 38 1007.4
20260504211535 76 307 0.0 4.0 0.00 0.00 0.00 39 1007.5
20260504204533 74 310 2.0 4.0 0.00 0.00 0.00 38 1007.8
20260504203102 75 205 1.0 6.0 0.00 0.00 0.00 40 1007.9
20260504201513 74 16 2.0 8.0 0.00 0.00 0.00 38 1007.9
20260504200043 75 343 1.0 6.0 0.00 0.00 0.00 39 1007.8
20260504194602 74 219 1.0 5.0 0.00 0.00 0.00 40 1007.9
20260504193027 73 172 0.0 9.0 0.00 0.00 0.00 40 1007.9
20260504191558 73 5 2.0 6.0 0.00 0.00 0.00 39 1008.1
20260504190010 73 68 2.0 5.0 0.00 0.00 0.00 40 1008.1
20260504184539 72 194 0.0 5.0 0.00 0.00 0.00 41 1008.1
20260504183004 72 333 2.0 5.0 0.00 0.00 0.00 44 1008.3
20260504181542 72 355 1.0 5.0 0.00 0.00 0.00 46 1008.3
20260504174518 70 341 3.0 10.0 0.00 0.00 0.00 42 1008.4
20260504173046 70 250 0.0 4.0 0.00 0.00 0.00 48 1008.5
20260504171511 69 245 0.0 4.0 0.00 0.00 0.00 43 1008.4
20260504150112 49 184 0.0 0.0 0.00 0.00 0.00 96 1008.9
20260504090104 42 178 0.0 0.0 0.00 0.00 0.00 90 1007.5
20260504081506 44 178 0.0 0.0 0.00 0.00 0.00 88 1007.5